Location: Bussy-Saint-Georges
(48.8410°N, 2.7017°E)
Time: 04:29:33
(UTC+00:00)

Cosmos 1300 - Pass Details

Date: 18 October 2021
Orbit: 509 x 512 km, 82.5° (Epoch: 30 November)

Event Time Altitude Azimuth Distance (km) Brightness Sun altitude
Rises 17:57:35 0° 158° (SSE) 2,615 6.1 -11.3°
Reaches altitude 10° 17:59:58 10° 144° (SE) 1,734 5.0 -11.6°
Maximum altitude 18:03:05 24° 89° (E) 1,087 3.7 -12.2°
Drops below altitude 10° 18:06:13 10° 34° (NE) 1,746 5.0 -12.7°
Sets 18:08:37 0° 21° (NNE) 2,638 6.1 -13.1°
